THURAYA-3 (32404 NORAD) Tracking and Keplerian Element Data

This shows tracking and keplerian element data for the satellite.

Feedback or suggestion? Click here.




ElementValue
Catalog32404
NameTHURAYA-3
Epoch Orbit6249
Epoch Day34.56022019
Epoch Year2025
RAAN34.0788
Inclination5.1828
Eccentricity0.0002494
Argument of Perigee275.2843
Mean Anonmoly124.7775
Mean Motion1.00270985
Decay Rate-2.99E-06
L11 32404U 08001A 25034.56022019 -.00000299 00000+0 00000+0 0 9990
L22 32404 5.1828 34.0788 0002494 275.2843 124.7775 1.00270985 62495



Live tracking and technical data element details for THURAYA-3 (NORAD 32404). THURAYA-3 can be tracked NOW for your location showing map with azimuth and elevation plus other details from your city location.







IsCatalogInMostPopularTable: catalog: 32404, numindb: 1317
Update: records affected: 1



GetName: 32404 THURAYA-3

Hit Count: updated at: Sat, 17 May 2025 09:08:09 GMT